Time,TemperatureF,DewpointF,PressureIn,WindDirection,WindDirectionDegrees,WindSpeedMPH,WindSpeedGustMPH,Humidity,HourlyPrecipIn,Conditions,Clouds,dailyrainin,SolarRadiationWatts/m^2,SoftwareType,DateUTC
2013-02-12 07:42:00,26.0,26.0,30.03,WSW,245,17.0,21.0,100,-99.99,,,-99.99,44.630001,,2013-02-12 14:42:00,
2013-02-12 07:52:00,26.0,26.0,30.03,WSW,245,17.0,21.0,100,-99.99,,,-99.99,44.630001,,2013-02-12 14:52:00,
2013-02-12 08:02:00,26.0,26.0,30.03,WSW,239,17.0,22.0,100,-99.99,,,-99.99,55.790001,,2013-02-12 15:02:00,
2013-02-12 08:11:00,26.0,26.0,30.05,SW,230,17.0,25.0,100,-99.99,,,-99.99,36.259998,,2013-02-12 15:11:00,
2013-02-12 08:21:00,26.0,26.0,30.05,SW,230,17.0,25.0,100,-99.99,,,-99.99,36.259998,,2013-02-12 15:21:00,
2013-02-12 08:32:00,26.0,26.0,30.05,WSW,238,19.0,25.0,100,-99.99,,,-99.99,64.150002,,2013-02-12 15:32:00,
2013-02-12 08:42:00,26.0,26.0,30.06,WSW,237,16.0,19.0,100,-99.99,,,-99.99,138.070007,,2013-02-12 15:42:00,
2013-02-12 08:52:00,26.0,26.0,30.06,WSW,237,16.0,19.0,100,-99.99,,,-99.99,138.070007,,2013-02-12 15:52:00,
2013-02-12 09:01:00,26.0,26.0,30.06,WSW,237,16.0,19.0,100,-99.99,,,-99.99,138.070007,,2013-02-12 16:01:00,
2013-02-12 09:11:00,26.0,26.0,30.07,SW,235,20.0,26.0,99,-99.99,,,-99.99,235.699997,,2013-02-12 16:11:00,
2013-02-12 09:22:00,27.0,27.0,30.08,WSW,237,20.0,25.0,100,-99.99,,,-99.99,276.839996,,2013-02-12 16:22:00,
2013-02-12 09:30:00,27.0,27.0,30.10,WSW,237,21.0,24.0,100,-99.99,,,-99.99,444.200012,,2013-02-12 16:30:00,
2013-02-12 09:32:00,27.0,27.0,30.08,WSW,237,20.0,25.0,100,-99.99,,,-99.99,276.839996,,2013-02-12 16:32:00,
2013-02-12 09:41:00,27.0,27.0,30.09,WSW,239,21.0,24.0,99,-99.99,,,-99.99,260.799988,,2013-02-12 16:41:00,
2013-02-12 09:52:00,27.0,27.0,30.10,WSW,237,21.0,24.0,100,-99.99,,,-99.99,444.200012,,2013-02-12 16:52:00,
2013-02-12 10:01:00,27.0,27.0,30.10,WSW,237,21.0,24.0,100,-99.99,,,-99.99,444.200012,,2013-02-12 17:01:00,
2013-02-12 10:12:00,27.0,27.0,30.10,WSW,237,21.0,24.0,100,-99.99,,,-99.99,444.200012,,2013-02-12 17:12:00,
2013-02-12 10:21:00,27.0,27.0,30.10,WSW,237,21.0,24.0,100,-99.99,,,-99.99,444.200012,,2013-02-12 17:21:00,
2013-02-12 10:42:00,29.0,27.0,30.11,West,270,23.0,28.0,92,-99.99,,,-99.99,707.789978,,2013-02-12 17:42:00,
2013-02-12 10:52:00,29.0,27.0,30.11,West,270,23.0,28.0,92,-99.99,,,-99.99,707.789978,,2013-02-12 17:52:00,
2013-02-12 11:01:00,29.0,27.0,30.11,West,270,23.0,28.0,92,-99.99,,,-99.99,707.789978,,2013-02-12 18:01:00,
2013-02-12 11:11:00,32.0,19.0,30.10,WNW,287,29.0,37.0,56,-99.99,,,-99.99,709.190002,,2013-02-12 18:11:00,
2013-02-12 11:23:00,32.0,19.0,30.10,WNW,287,29.0,37.0,56,-99.99,,,-99.99,709.190002,,2013-02-12 18:23:00,
2013-02-12 11:32:00,33.0,15.0,30.10,WNW,287,30.0,39.0,46,-99.99,,,-99.99,735.690002,,2013-02-12 18:32:00,
2013-02-12 11:41:00,34.0,15.0,30.10,WNW,284,28.0,35.0,45,-99.99,,,-99.99,755.210022,,2013-02-12 18:41:00,
2013-02-12 11:52:00,34.0,15.0,30.10,WNW,284,28.0,35.0,45,-99.99,,,-99.99,755.210022,,2013-02-12 18:52:00,
2013-02-12 12:02:00,34.0,15.0,30.10,WNW,284,28.0,35.0,45,-99.99,,,-99.99,755.210022,,2013-02-12 19:02:00,
2013-02-12 12:11:00,35.0,13.0,30.10,WNW,288,27.0,36.0,39,-99.99,,,-99.99,785.200012,,2013-02-12 19:11:00,
2013-02-12 12:21:00,35.0,13.0,30.10,WNW,288,27.0,36.0,39,-99.99,,,-99.99,785.200012,,2013-02-12 19:21:00,
2013-02-12 12:30:00,37.0,11.0,30.09,WNW,286,22.0,37.0,33,-99.99,,,-99.99,799.840027,,2013-02-12 19:30:00,
2013-02-12 12:31:00,36.0,13.0,30.10,WNW,284,24.0,33.0,37,-99.99,,,-99.99,794.960022,,2013-02-12 19:31:00,
2013-02-12 12:41:00,37.0,11.0,30.10,WNW,283,24.0,31.0,34,-99.99,,,-99.99,799.840027,,2013-02-12 19:41:00,
2013-02-12 12:52:00,37.0,11.0,30.10,WNW,283,24.0,31.0,34,-99.99,,,-99.99,799.840027,,2013-02-12 19:52:00,
2013-02-12 13:01:00,37.0,11.0,30.09,WNW,286,22.0,37.0,33,-99.99,,,-99.99,799.840027,,2013-02-12 20:01:00,
2013-02-12 13:11:00,37.0,11.0,30.09,WNW,286,22.0,37.0,33,-99.99,,,-99.99,799.840027,,2013-02-12 20:11:00,
2013-02-12 13:21:00,37.0,11.0,30.09,WNW,286,22.0,37.0,33,-99.99,,,-99.99,799.840027,,2013-02-12 20:21:00,
2013-02-12 13:42:00,38.0,11.0,30.08,WNW,289,16.0,24.0,32,-99.99,,,-99.99,771.250000,,2013-02-12 20:42:00,
2013-02-12 13:52:00,38.0,11.0,30.08,WNW,289,16.0,24.0,32,-99.99,,,-99.99,771.250000,,2013-02-12 20:52:00,
2013-02-12 14:01:00,40.0,11.0,30.07,WNW,283,19.0,27.0,30,-99.99,,,-99.99,755.210022,,2013-02-12 21:01:00,
2013-02-12 14:11:00,39.0,10.0,30.07,West,280,16.0,29.0,29,-99.99,,,-99.99,733.590027,,2013-02-12 21:11:00,
2013-02-12 14:21:00,39.0,10.0,30.07,West,280,16.0,29.0,29,-99.99,,,-99.99,733.590027,,2013-02-12 21:21:00,
2013-02-12 14:31:00,40.0,10.0,30.07,WNW,285,15.0,23.0,28,-99.99,,,-99.99,693.150024,,2013-02-12 21:31:00,
2013-02-12 14:42:00,40.0,9.0,30.06,West,261,13.0,22.0,27,-99.99,,,-99.99,678.510010,,2013-02-12 21:42:00,
2013-02-12 14:52:00,40.0,9.0,30.06,West,261,13.0,22.0,27,-99.99,,,-99.99,678.510010,,2013-02-12 21:52:00,
2013-02-12 15:01:00,40.0,9.0,30.06,West,266,15.0,21.0,26,-99.99,,,-99.99,638.760010,,2013-02-12 22:01:00,
2013-02-12 15:12:00,41.0,8.0,30.06,West,275,14.0,22.0,25,-99.99,,,-99.99,609.469971,,2013-02-12 22:12:00,
2013-02-12 15:21:00,41.0,8.0,30.06,West,275,14.0,22.0,25,-99.99,,,-99.99,609.469971,,2013-02-12 22:21:00,
2013-02-12 15:32:00,41.0,8.0,30.06,West,271,15.0,21.0,24,-99.99,,,-99.99,569.020020,,2013-02-12 22:32:00,
2013-02-12 15:42:00,41.0,7.0,30.07,West,281,14.0,21.0,23,-99.99,,,-99.99,526.489990,,2013-02-12 22:42:00,
2013-02-12 15:52:00,41.0,7.0,30.07,West,281,14.0,21.0,23,-99.99,,,-99.99,526.489990,,2013-02-12 22:52:00,
2013-02-12 16:01:00,42.0,5.0,30.07,WNW,283,17.0,23.0,20,-99.99,,,-99.99,471.399994,,2013-02-12 23:01:00,
2013-02-12 16:11:00,42.0,5.0,30.07,West,277,15.0,21.0,21,-99.99,,,-99.99,433.040009,,2013-02-12 23:11:00,
2013-02-12 16:21:00,42.0,5.0,30.07,West,277,15.0,21.0,21,-99.99,,,-99.99,433.040009,,2013-02-12 23:21:00,
2013-02-12 16:32:00,41.0,5.0,30.07,West,261,14.0,22.0,22,-99.99,,,-99.99,382.839996,,2013-02-12 23:32:00,
2013-02-12 16:42:00,41.0,5.0,30.07,West,261,14.0,22.0,22,-99.99,,,-99.99,382.839996,,2013-02-12 23:42:00,
2013-02-12 16:52:00,41.0,5.0,30.07,West,261,14.0,22.0,22,-99.99,,,-99.99,382.839996,,2013-02-12 23:52:00,
2013-02-12 17:02:00,42.0,5.0,30.08,West,277,14.0,20.0,21,-99.99,,,-99.99,278.239990,,2013-02-13 00:02:00,
2013-02-12 17:11:00,41.0,3.0,30.08,WNW,282,16.0,23.0,20,-99.99,,,-99.99,225.940002,,2013-02-13 00:11:00,
2013-02-12 17:21:00,41.0,3.0,30.08,WNW,282,16.0,23.0,20,-99.99,,,-99.99,225.940002,,2013-02-13 00:21:00,
2013-02-12 17:32:00,41.0,3.0,30.08,West,278,14.0,21.0,19,-99.99,,,-99.99,174.330002,,2013-02-13 00:32:00,
2013-02-12 17:42:00,40.0,1.0,30.08,West,280,15.0,22.0,18,-99.99,,,-99.99,115.059998,,2013-02-13 00:42:00,
2013-02-12 17:52:00,40.0,1.0,30.08,West,280,15.0,22.0,18,-99.99,,,-99.99,115.059998,,2013-02-13 00:52:00,
2013-02-12 18:01:00,40.0,0.0,30.09,WNW,283,14.0,19.0,17,-99.99,,,-99.99,53.000000,,2013-02-13 01:01:00,
2013-02-12 18:11:00,39.0,-1.0,30.09,WNW,283,13.0,16.0,18,-99.99,,,-99.99,15.340000,,2013-02-13 01:11:00,
2013-02-12 18:21:00,39.0,-1.0,30.09,WNW,283,13.0,16.0,18,-99.99,,,-99.99,15.340000,,2013-02-13 01:21:00,
2013-02-12 18:31:00,37.0,0.0,30.10,WNW,286,11.0,15.0,20,-99.99,,,-99.99,4.180000,,2013-02-13 01:31:00,
2013-02-12 18:42:00,36.0,0.0,30.10,WNW,294,8.0,9.0,21,-99.99,,,-99.99,0.700000,,2013-02-13 01:42:00,
2013-02-12 18:52:00,36.0,0.0,30.11,WNW,299,5.0,7.0,21,-99.99,,,-99.99,0.000000,,2013-02-13 01:52:00,
2013-02-12 19:01:00,36.0,0.0,30.11,WNW,299,5.0,7.0,21,-99.99,,,-99.99,0.000000,,2013-02-13 02:01:00,
2013-02-12 19:11:00,35.0,0.0,30.11,West,264,4.0,6.0,21,-99.99,,,-99.99,0.000000,,2013-02-13 02:11:00,
2013-02-12 19:22:00,35.0,0.0,30.11,West,264,4.0,6.0,21,-99.99,,,-99.99,0.000000,,2013-02-13 02:22:00,
2013-02-12 19:31:00,35.0,0.0,30.11,West,264,4.0,6.0,21,-99.99,,,-99.99,0.000000,,2013-02-13 02:31:00,
2013-02-12 19:41:00,35.0,0.0,30.12,WNW,289,1.0,4.0,22,-99.99,,,-99.99,0.000000,,2013-02-13 02:41:00,
2013-02-12 19:52:00,35.0,0.0,30.12,WNW,289,1.0,4.0,22,-99.99,,,-99.99,0.000000,,2013-02-13 02:52:00,
2013-02-12 20:01:00,35.0,4.0,30.13,SSE,150,2.0,4.0,26,-99.99,,,-99.99,0.000000,,2013-02-13 03:01:00,
2013-02-12 20:11:00,35.0,5.0,30.13,SE,141,3.0,5.0,27,-99.99,,,-99.99,0.000000,,2013-02-13 03:11:00,
2013-02-12 20:21:00,35.0,5.0,30.13,SE,141,3.0,5.0,27,-99.99,,,-99.99,0.000000,,2013-02-13 03:21:00,
2013-02-12 20:32:00,35.0,5.0,30.13,SE,141,3.0,5.0,27,-99.99,,,-99.99,0.000000,,2013-02-13 03:32:00,
2013-02-12 20:41:00,35.0,4.0,30.13,NW,306,2.0,5.0,26,-99.99,,,-99.99,0.000000,,2013-02-13 03:41:00,
2013-02-12 20:52:00,35.0,4.0,30.13,NW,306,2.0,5.0,26,-99.99,,,-99.99,0.000000,,2013-02-13 03:52:00,
2013-02-12 21:01:00,35.0,3.0,30.14,West,272,2.0,8.0,25,-99.99,,,-99.99,0.000000,,2013-02-13 04:01:00,
2013-02-12 21:11:00,34.0,2.0,30.14,West,274,11.0,15.0,24,-99.99,,,-99.99,0.000000,,2013-02-13 04:11:00,
2013-02-12 21:21:00,34.0,2.0,30.14,West,274,11.0,15.0,24,-99.99,,,-99.99,0.000000,,2013-02-13 04:21:00,
2013-02-12 21:31:00,34.0,2.0,30.14,West,274,11.0,15.0,24,-99.99,,,-99.99,0.000000,,2013-02-13 04:31:00,
2013-02-12 21:41:00,34.0,6.0,30.14,West,281,12.0,16.0,29,-99.99,,,-99.99,0.000000,,2013-02-13 04:41:00,
2013-02-12 21:52:00,34.0,6.0,30.14,West,281,12.0,16.0,29,-99.99,,,-99.99,0.000000,,2013-02-13 04:52:00,
2013-02-12 22:01:00,33.0,7.0,30.14,West,278,12.0,15.0,32,-99.99,,,-99.99,0.000000,,2013-02-13 05:01:00,
2013-02-12 22:11:00,33.0,8.0,30.15,West,280,12.0,16.0,35,-99.99,,,-99.99,0.000000,,2013-02-13 05:11:00,
2013-02-12 22:22:00,33.0,8.0,30.15,West,280,12.0,16.0,35,-99.99,,,-99.99,0.000000,,2013-02-13 05:22:00,
2013-02-12 22:31:00,33.0,9.0,30.14,West,280,14.0,18.0,36,-99.99,,,-99.99,0.000000,,2013-02-13 05:31:00,
2013-02-12 22:42:00,33.0,10.0,30.14,WNW,285,14.0,17.0,37,-99.99,,,-99.99,0.000000,,2013-02-13 05:42:00,
2013-02-12 22:52:00,33.0,10.0,30.14,WNW,285,14.0,17.0,37,-99.99,,,-99.99,0.000000,,2013-02-13 05:52:00,
2013-02-12 23:02:00,33.0,10.0,30.14,WNW,285,14.0,17.0,37,-99.99,,,-99.99,0.000000,,2013-02-13 06:02:00,
2013-02-12 23:11:00,32.0,11.0,30.14,West,277,13.0,16.0,40,-99.99,,,-99.99,0.000000,,2013-02-13 06:11:00,
2013-02-12 23:21:00,32.0,11.0,30.14,West,277,13.0,16.0,40,-99.99,,,-99.99,0.000000,,2013-02-13 06:21:00,
2013-02-12 23:32:00,32.0,11.0,30.14,WNW,287,12.0,15.0,40,-99.99,,,-99.99,0.000000,,2013-02-13 06:32:00,
2013-02-12 23:42:00,32.0,11.0,30.14,West,281,9.0,11.0,41,-99.99,,,-99.99,0.000000,,2013-02-13 06:42:00,
2013-02-12 23:52:00,32.0,11.0,30.14,West,281,9.0,11.0,41,-99.99,,,-99.99,0.000000,,2013-02-13 06:52:00,